Temp
-0 -0 -0 -0 -2 -3 -3 -2 -3 -3 -3 -2 -2 -2 -2 -2 -2 -2 -3 -3 -4 -5 -6 -7 -7 -8 -8 -9 -9 -10 -10 -10 -11 -11 -11 -12 -12 -12
-1 -1 -1 -2 -4 -2 -3 -3 -3 -3 -3 -3 -3 -3 -3 -3 -3 -3 -3 -4 -6 -7 -8 -8 -8 -9 -9 -9 -9 -10 -10 -11 -11 -11 -11 -11 -12 -13
-2 -2 -3 -3 -3 -3 -3 -3 -3 -3 -3 -3 -3 -3 -3 -4 -4 -5 -6 -6 -7 -8 -8 -9 -9 -9 -9 -9 -9 -10 -11 -11 -11 -11 -12 -13 -13 -13
-2 -5 -3 -3 -3 -3 -3 -4 -4 -4 -4 -3 -3 -4 -4 -5 -5 -6 -7 -8 -8 -9 -10 -9 -10 -9 -9 -10 -10 -10 -11 -11 -12 -12 -13 -13 -14 -14
-4 -3 -3 -3 -3 -3 -4 -4 -4 -4 -4 -4 -4 -5 -6 -6 -7 -7 -8 -9 -10 -10 -10 -10 -10 -10 -10 -10 -10 -11 -11 -11 -12 -12 -13 -14 -14 -15
-3 -4 -4 -4 -4 -4 -5 -4 -4 -4 -5 -6 -6 -7 -7 -7 -8 -8 -10 -10 -10 -10 -11 -11 -10 -10 -10 -11 -11 -11 -12 -12 -12 -13 -13 -14 -15 -15
-4 -4 -4 -5 -5 -5 -5 -4 -4 -4 -5 -7 -7 -8 -8 -8 -9 -10 -10 -11 -11 -11 -10 -11 -10 -10 -10 -11 -11 -12 -12 -13 -13 -13 -14 -14 -14 -15
-5 -5 -5 -5 -5 -5 -5 -5 -6 -6 -7 -8 -8 -8 -9 -10 -10 -11 -11 -11 -11 -11 -10 -11 -10 -11 -11 -12 -12 -13 -13 -13 -14 -14 -14 -14 -14 -15
-5 -5 -5 -5 -6 -5 -5 -5 -6 -7 -8 -9 -9 -9 -10 -10 -11 -11 -11 -11 -12 -11 -11 -11 -11 -12 -12 -13 -13 -14 -14 -14 -14 -14 -14 -15 -15 -15
-5 -6 -6 -6 -6 -6 -6 -6 -7 -8 -9 -9 -10 -10 -10 -11 -11 -11 -11 -12 -12 -12 -12 -11 -12 -13 -13 -14 -14 -14 -15 -15 -15 -15 -15 -15 -15 -15
-6 -6 -6 -6 -6 -7 -7 -8 -9 -9 -10 -10 -10 -11 -11 -11 -11 -12 -12 -12 -12 -12 -12 -12 -13 -12 -14 -14 -15 -15 -15 -15 -15 -16 -16 -16 -16 -16
-6 -6 -6 -7 -7 -7 -8 -9 -10 -10 -10 -11 -11 -11 -12 -12 -12 -13 -13 -13 -13 -12 -13 -12 -13 -13 -12 -14 -15 -15 -15 -16 -16 -16 -16 -16 -16 -16
-7 -7 -7 -7 -8 -9 -9 -10 -10 -11 -11 -11 -11 -12 -12 -13 -13 -13 -13 -13 -13 -13 -14 -13 -14 -14 -14 -14 -15 -15 -15 -16 -16 -16 -16 -17 -17 -17
-7 -7 -8 -8 -9 -10 -10 -10 -11 -11 -11 -11 -12 -13 -13 -13 -13 -14 -14 -14 -14 -14 -14 -14 -14 -15 -15 -15 -15 -15 -16 -16 -16 -16 -16 -17 -17 -17
-8 -8 -9 -10 -10 -11 -11 -11 -11 -11 -12 -12 -13 -13 -13 -13 -13 -14 -14 -14 -15 -15 -15 -15 -15 -15 -15 -16 -15 -16 -16 -16 -16 -16 -17 -17 -17 -17
-9 -10 -10 -11 -11 -11 -11 -11 -12 -12 -12 -13 -13 -13 -14 -14 -14 -14 -14 -14 -15 -15 -15 -16 -16 -16 -16 -16 -16 -16 -16 -16 -16 -16 -17 -17 -17 -17
-10 -11 -11 -11 -11 -11 -12 -12 -12 -12 -13 -13 -13 -13 -14 -14 -14 -14 -15 -15 -15 -15 -15 -16 -16 -17 -17 -17 -16 -16 -17 -16 -16 -16 -16 -17 -17 -17
-11 -11 -12 -12 -12 -12 -12 -12 -13 -13 -13 -13 -14 -14 -14 -14 -15 -15 -15 -15 -15 -16 -16 -16 -16 -17 -17 -18 -17 -17 -17 -17 -17 -17 -17 -17 -17 -17
-11 -12 -12 -12 -12 -12 -13 -13 -13 -13 -14 -14 -14 -14 -14 -15 -15 -15 -15 -16 -16 -16 -17 -17 -17 -17 -17 -17 -18 -17 -17 -17 -17 -17 -17 -17 -17 -17
-12 -12 -12 -13 -13 -13 -13 -13 -13 -14 -14 -14 -14 -14 -15 -15 -15 -15 -16 -16 -16 -16 -17 -17 -17 -18 -18 -17 -17 -18 -17 -17 -17 -17 -17 -17 -17 -17
-12 -12 -13 -13 -13 -13 -13 -14 -14 -14 -14 -15 -15 -15 -15 -15 -16 -16 -16 -17 -17 -17 -17 -17 -18 -18 -18 -18 -18 -18 -18 -18 -17 -17 -17 -17 -17 -17
-13 -13 -13 -13 -13 -13 -14 -14 -14 -14 -15 -15 -15 -15 -15 -16 -16 -16 -16 -17 -17 -17 -18 -18 -18 -18 -18 -18 -18 -18 -18 -18 -18 -17 -17 -17 -17 -17
-13 -13 -13 -14 -14 -14 -14 -14 -14 -15 -15 -15 -15 -16 -16 -16 -16 -16 -17 -17 -17 -17 -18 -18 -18 -18 -18 -18 -18 -18 -18 -18 -17 -18 -17 -17 -17 -17
Height
3099 3099 3100 3098 3096 3096 3099 3097 3095 3093 3089 3083 3081 3075 3071 3066 3061 3055 3049 3044 3039 3033 3028 3022 3016 3010 3006 3000 2995 2989 2982 2976 2971 2968 2964 2960 2957 2955
3093 3092 3091 3090 3092 3093 3093 3091 3088 3085 3082 3079 3074 3070 3065 3059 3053 3048 3043 3037 3032 3026 3022 3015 3010 3006 3000 2992 2984 2979 2976 2972 2968 2963 2958 2953 2949 2946
3084 3085 3086 3088 3088 3088 3087 3085 3083 3080 3076 3071 3066 3061 3055 3051 3046 3040 3034 3029 3025 3019 3014 3009 3006 2998 2990 2984 2980 2977 2973 2968 2962 2957 2951 2946 2942 2939
3080 3081 3083 3084 3083 3082 3079 3077 3075 3072 3069 3063 3058 3053 3048 3042 3036 3032 3028 3023 3018 3016 3009 3001 2996 2991 2984 2981 2979 2973 2967 2962 2956 2950 2945 2940 2937 2933
3077 3078 3078 3078 3076 3074 3073 3071 3066 3064 3061 3056 3051 3045 3042 3036 3031 3026 3021 3018 3012 3009 3002 2994 2990 2986 2983 2978 2972 2967 2961 2955 2950 2944 2939 2934 2931 2928
3072 3073 3073 3073 3072 3070 3065 3063 3060 3056 3052 3049 3044 3040 3035 3029 3023 3019 3018 3014 3009 3004 2997 2990 2986 2984 2979 2972 2966 2960 2954 2948 2943 2937 2932 2928 2924 2921
3068 3070 3070 3069 3066 3062 3058 3057 3054 3050 3045 3042 3039 3035 3030 3024 3020 3014 3007 3006 3001 2997 2995 2989 2985 2978 2972 2966 2960 2954 2948 2942 2936 2931 2926 2922 2918 2914
3066 3066 3064 3064 3061 3058 3053 3050 3048 3043 3039 3038 3033 3026 3024 3021 3014 3009 3003 2999 2996 2994 2990 2985 2978 2972 2965 2959 2953 2947 2942 2936 2931 2926 2921 2916 2912 2908
3062 3062 3060 3059 3056 3052 3048 3044 3042 3039 3034 3032 3027 3023 3019 3012 3010 3004 3000 2995 2991 2988 2984 2980 2972 2966 2959 2952 2947 2942 2937 2931 2926 2921 2916 2911 2906 2902
3059 3058 3056 3055 3051 3045 3042 3038 3035 3029 3027 3026 3022 3017 3013 3008 3003 2999 2997 2992 2987 2983 2977 2973 2965 2961 2954 2947 2941 2937 2932 2927 2922 2917 2912 2907 2902 2898
3055 3054 3052 3049 3045 3038 3035 3031 3028 3023 3022 3018 3014 3012 3007 3003 3000 2997 2992 2988 2983 2979 2971 2966 2960 2953 2950 2943 2937 2931 2927 2923 2918 2913 2908 2902 2898 2893
3053 3050 3047 3042 3038 3033 3028 3026 3022 3019 3015 3014 3008 3006 3005 3000 2995 2991 2987 2982 2977 2972 2965 2959 2954 2946 2941 2940 2934 2927 2923 2918 2913 2908 2903 2898 2894 2889
3048 3044 3039 3034 3031 3026 3022 3020 3018 3016 3008 3011 3008 3003 2999 2995 2991 2987 2982 2977 2971 2965 2960 2953 2948 2943 2937 2930 2930 2923 2917 2912 2908 2904 2899 2894 2890 2885
3038 3034 3032 3029 3025 3022 3018 3018 3014 3013 3008 3006 3001 2997 2994 2991 2988 2983 2977 2971 2966 2960 2954 2949 2943 2938 2932 2927 2922 2919 2914 2908 2902 2899 2894 2890 2886 2882
3033 3029 3027 3024 3021 3018 3016 3015 3011 3007 3002 2998 2995 2993 2990 2986 2982 2977 2972 2967 2961 2955 2949 2944 2938 2933 2928 2922 2917 2913 2908 2905 2899 2894 2890 2885 2881 2878
3028 3025 3023 3021 3018 3015 3012 3008 3004 3000 2997 2995 2992 2988 2984 2980 2976 2971 2966 2961 2957 2953 2946 2940 2934 2928 2923 2919 2913 2909 2904 2900 2896 2891 2887 2883 2879 2875
3023 3019 3016 3013 3011 3009 3006 3003 3000 2997 2994 2990 2986 2983 2979 2975 2970 2966 2961 2956 2951 2946 2942 2937 2931 2925 2919 2913 2910 2906 2901 2897 2893 2888 2885 2881 2877 2873
3015 3013 3012 3010 3008 3005 3002 2999 2996 2992 2989 2985 2981 2977 2973 2969 2965 2961 2956 2951 2946 2941 2936 2931 2927 2924 2920 2914 2907 2904 2899 2895 2891 2886 2883 2879 2876 2872
3012 3011 3009 3006 3003 3000 2997 2993 2990 2987 2983 2979 2976 2972 2968 2964 2960 2956 2952 2947 2943 2937 2932 2928 2923 2918 2914 2910 2906 2901 2898 2893 2889 2886 2882 2878 2875 2872
3008 3006 3004 3001 2998 2995 2992 2988 2985 2982 2978 2974 2971 2968 2964 2960 2956 2953 2948 2944 2939 2935 2930 2926 2921 2916 2912 2907 2903 2900 2895 2892 2888 2884 2881 2878 2875 2872
3004 3001 2999 2996 2993 2990 2987 2983 2980 2977 2974 2970 2967 2964 2960 2957 2953 2949 2945 2941 2937 2933 2928 2924 2919 2915 2911 2906 2902 2898 2894 2890 2887 2883 2881 2878 2875 2872
2998 2996 2993 2991 2988 2984 2981 2978 2975 2972 2969 2966 2963 2960 2956 2953 2950 2946 2942 2939 2935 2931 2926 2922 2918 2913 2909 2904 2900 2896 2893 2890 2886 2883 2880 2877 2875 2873
2993 2990 2987 2985 2982 2979 2976 2973 2970 2968 2965 2962 2959 2956 2953 2950 2947 2943 2940 2937 2933 2929 2925 2922 2917 2913 2908 2903 2899 2895 2892 2888 2885 2882 2879 2877 2875 2873
Wind_Speed
17 20 24 33 31 21 21 20 22 25 27 32 32 37 39 42 45 45 46 46 46 46 46 43 44 43 42 40 37 36 36 36 35 36 37 37 34 27
24 25 30 28 16 19 18 20 23 27 29 32 35 38 40 41 44 44 44 44 43 41 40 40 38 36 36 35 34 35 36 36 35 34 36 37 35 29
29 32 21 16 18 17 19 23 26 29 32 35 39 40 40 41 41 41 41 41 40 39 37 35 35 34 35 34 33 33 31 30 30 32 35 34 31 29
30 12 17 16 16 19 21 24 26 30 35 37 39 40 40 40 40 39 38 38 38 34 32 32 33 34 35 36 35 33 31 30 30 30 31 29 27 27
15 14 13 15 17 20 23 26 30 35 38 39 38 39 38 38 36 36 36 34 32 29 28 29 30 32 32 32 32 32 30 30 29 28 27 27 26 26
12 12 14 16 19 21 24 29 33 36 37 37 37 36 36 36 34 33 30 30 29 26 27 31 32 33 33 32 31 30 29 29 28 27 26 26 27 25
11 13 15 18 20 24 29 33 36 37 36 35 35 35 35 33 31 30 30 30 28 28 28 32 33 35 36 34 32 30 29 28 28 28 28 28 28 29
11 14 16 20 23 27 30 33 35 34 33 33 32 32 32 30 29 29 29 29 30 28 29 32 34 33 34 33 30 29 28 28 28 28 28 28 28 28
14 16 19 22 26 29 32 35 34 31 32 32 31 30 29 29 30 29 29 29 28 30 31 31 32 31 32 32 30 29 28 27 27 27 27 27 27 27
15 18 22 25 28 31 32 31 30 30 31 32 30 29 29 28 29 29 29 29 27 29 31 31 32 29 28 29 30 29 27 27 27 26 26 26 27 26
17 21 25 27 29 30 29 28 28 28 29 31 31 30 28 28 29 28 28 28 28 27 30 31 30 31 24 26 28 30 28 26 26 26 26 26 26 26
21 24 27 30 30 28 26 26 27 29 29 30 29 28 27 27 27 28 28 28 29 29 31 33 28 31 32 23 25 27 26 26 25 26 26 26 26 26
23 25 28 30 28 26 26 27 28 27 27 28 27 26 26 26 26 27 27 28 30 30 30 32 30 30 32 35 26 25 27 26 25 25 25 25 25 25
25 29 29 27 25 25 25 26 25 26 26 25 25 24 24 25 25 26 26 27 29 31 30 30 31 31 33 33 30 26 24 24 25 25 24 24 23 22
27 28 26 23 23 23 23 24 24 25 25 24 23 23 24 24 24 25 25 26 27 28 29 30 31 31 31 32 31 28 27 22 23 24 23 23 22 20
27 24 21 21 21 23 23 24 24 24 24 23 22 22 23 24 25 26 26 26 25 24 26 28 30 31 31 29 29 28 26 25 23 22 22 21 20 18
24 21 21 22 23 23 23 23 23 23 23 22 22 22 23 24 24 25 26 26 27 27 26 26 27 27 28 29 26 26 24 23 23 22 21 19 19 16
22 21 22 22 23 23 23 23 23 23 22 22 22 22 23 23 24 23 25 26 26 27 28 27 24 21 19 20 24 22 21 21 20 21 20 18 17 15
20 21 22 22 23 23 23 23 23 23 23 22 21 22 22 22 23 23 23 24 26 27 26 26 25 25 23 20 20 22 19 19 19 18 18 17 15 13
20 21 22 23 23 23 23 22 23 22 22 22 21 22 22 21 21 22 23 24 25 24 23 23 23 22 23 23 21 20 20 17 17 17 15 14 13 12
20 22 22 22 22 22 22 22 22 22 22 22 21 21 20 20 20 21 22 23 23 23 22 22 22 22 22 21 20 19 19 19 17 16 15 14 12 11
22 23 22 22 23 23 22 22 22 22 22 21 20 20 19 19 19 20 21 21 21 21 21 21 22 22 22 22 20 19 17 16 17 16 15 13 11 9
23 23 23 24 23 23 22 22 22 21 21 20 19 18 18 17 18 19 20 20 19 18 18 20 21 22 23 22 21 19 17 16 14 13 13 12 11 10
Wind_Direction
252 259 262 267 266 276 271 275 283 289 296 300 302 305 307 309 310 312 313 314 316 317 318 319 319 321 322 320 318 319 320 320 316 312 308 306 301 293
263 272 269 272 279 265 272 281 291 297 300 302 306 308 310 311 312 312 311 314 316 316 318 318 319 322 325 329 331 326 320 315 313 310 307 304 300 286
257 265 270 266 263 275 287 295 299 302 306 308 309 311 313 312 312 314 315 314 316 319 318 317 319 324 331 334 329 321 314 312 308 307 307 305 303 299
273 254 248 257 273 287 296 299 303 307 309 311 311 312 311 313 315 316 316 315 317 319 318 320 326 328 328 321 314 314 314 310 308 310 310 305 303 306
242 246 260 274 287 295 299 304 311 311 312 312 312 312 314 314 315 314 314 313 315 320 322 331 333 329 321 317 319 319 315 312 311 311 310 303 301 302
238 258 277 289 292 296 307 310 310 312 312 313 313 313 314 314 314 313 312 313 317 320 326 326 323 316 313 316 319 322 319 316 314 311 307 302 298 297
254 271 287 296 302 308 310 310 311 312 311 313 315 314 314 314 314 312 316 316 318 318 319 316 315 316 314 313 315 320 321 319 317 313 309 303 299 296
280 293 298 299 304 306 308 311 312 311 312 312 313 315 313 311 314 315 316 317 316 312 312 315 317 318 317 319 319 320 322 322 319 317 314 311 305 302
293 299 304 304 305 309 311 311 311 312 314 314 316 314 312 315 317 317 314 313 311 312 313 318 320 322 322 322 322 322 322 322 321 321 319 318 316 313
302 308 307 308 310 311 310 311 313 316 317 315 316 315 315 316 317 315 311 311 312 313 316 321 320 323 324 322 321 322 321 320 319 319 320 321 323 323
307 307 307 308 311 313 315 316 316 318 316 317 317 315 313 315 313 311 311 308 308 315 317 320 324 323 329 325 322 321 321 317 316 317 320 321 323 326
305 306 309 313 315 315 315 317 320 319 318 314 313 310 307 308 313 312 308 308 312 316 320 321 326 325 325 333 327 318 318 315 314 315 317 320 322 323
306 310 316 317 318 319 319 320 319 315 316 309 302 303 305 311 311 310 310 312 315 317 321 322 328 326 325 326 332 326 324 319 317 316 315 316 318 318
316 318 318 315 315 316 317 313 312 309 309 307 307 307 306 306 307 309 311 313 315 317 321 323 325 326 325 325 328 329 328 323 321 320 318 318 318 318
314 315 314 313 313 314 314 310 310 312 314 313 309 303 302 305 311 314 315 315 318 319 321 322 322 323 322 323 326 329 328 331 327 325 325 323 321 321
313 314 311 311 312 313 313 313 315 317 314 309 306 305 306 309 313 316 318 318 319 320 320 320 321 321 321 323 326 328 329 329 331 331 334 331 327 323
316 315 316 317 315 314 314 315 315 315 314 311 309 310 311 313 316 316 318 320 322 324 325 324 323 324 323 324 327 329 330 326 325 328 333 337 337 333
318 316 315 312 313 313 313 313 314 315 315 312 312 313 316 318 319 320 321 324 325 327 328 329 328 328 326 325 326 331 334 332 330 331 334 338 343 342
309 309 310 311 312 311 312 312 313 315 316 314 314 316 320 322 322 323 325 328 329 330 333 334 335 336 337 338 336 334 339 333 336 336 337 340 347 352
304 306 309 311 312 311 311 311 312 315 317 316 315 318 322 322 322 325 328 330 332 335 336 336 337 338 338 339 341 339 337 342 338 338 342 341 346 351
303 308 311 311 310 310 310 311 312 314 316 316 314 316 319 320 324 327 330 333 335 335 336 337 338 339 337 336 335 339 338 339 340 341 343 344 348 351
307 308 309 310 311 312 311 311 310 312 315 315 314 317 318 321 325 328 333 335 335 337 341 343 344 344 345 345 342 340 339 336 338 340 341 344 349 357
306 307 310 311 311 311 310 309 308 310 312 313 313 315 317 321 323 330 334 335 337 341 348 352 352 351 350 350 351 350 346 345 342 336 337 343 345 350